Wind_Speed
15 13 14 16 20 23 27 29 30 29 29 30 33 36 39 43 46 47 49 54 54 48 42 42 45 48 51 55 59 62 65 67 66 66 64 63 59 55 52 50 49 49 48 49
17 15 17 19 22 26 29 31 31 31 31 33 36 40 43 46 47 48 51 53 49 42 41 43 46 49 54 58 62 65 66 66 65 63 61 59 55 52 49 48 48 47 47 46
17 16 17 21 24 27 30 31 33 34 34 36 37 41 45 46 48 50 53 51 45 41 42 44 48 52 57 61 63 64 64 62 60 58 56 53 51 49 47 45 46 47 47 46
16 17 20 23 26 28 30 32 34 35 37 39 41 42 46 48 50 52 53 49 44 42 43 47 51 56 60 62 63 63 61 61 60 57 54 52 49 46 44 43 45 47 49 47
17 19 22 25 27 30 32 33 35 38 40 42 43 43 44 46 48 51 52 48 45 44 46 49 53 57 60 62 62 62 63 63 60 56 51 47 43 42 41 41 42 46 49 50
20 22 24 25 27 30 33 35 38 41 43 45 47 46 46 47 49 53 53 49 46 46 48 51 55 58 61 61 61 62 62 60 56 49 44 38 34 32 33 35 37 43 48 49
22 22 23 24 27 30 34 37 40 42 44 46 48 49 50 50 52 55 53 49 46 47 49 52 56 59 60 59 60 61 61 58 52 45 39 32 27 25 26 30 34 38 43 47
22 21 22 24 28 31 33 36 40 42 45 46 48 49 49 49 51 54 53 49 47 47 49 53 56 58 59 58 58 59 58 54 48 42 34 27 23 20 20 22 28 32 38 44
20 20 22 25 28 31 34 37 41 43 45 47 48 49 49 49 51 53 54 50 47 47 49 52 56 58 58 57 56 57 55 50 45 40 32 25 19 15 13 14 18 26 32 38
20 21 23 26 28 31 35 38 42 44 46 48 48 49 50 50 50 52 53 50 47 46 48 51 55 57 57 56 55 54 52 48 44 38 32 24 18 14 9 8 12 18 24 32
20 22 24 27 29 32 36 39 42 44 46 47 48 49 50 50 50 52 53 52 48 46 47 50 53 55 55 54 52 50 49 47 43 39 33 27 20 15 10 5 4 10 16 22
21 24 25 28 30 33 36 39 42 44 45 47 47 48 49 50 50 52 53 52 48 45 45 48 51 53 54 52 50 48 47 46 42 38 33 29 24 18 13 7 2 3 10 15
22 24 26 28 31 34 37 40 42 44 45 46 47 48 49 50 51 51 52 52 49 44 43 46 49 50 52 50 48 46 44 43 41 38 34 30 27 22 16 11 5 1 6 11
24 26 28 29 32 35 38 41 43 44 45 46 47 47 48 49 50 50 51 51 49 43 42 43 46 48 49 48 46 45 43 41 39 37 34 30 28 24 20 15 10 6 6 9
28 29 29 31 34 38 40 42 44 45 46 46 47 47 47 48 49 50 50 51 49 44 40 40 42 45 46 46 45 43 42 40 38 36 34 30 27 24 21 18 14 11 9 9
30 30 31 34 37 40 42 42 43 44 45 46 47 48 47 47 48 49 50 50 49 44 39 37 39 41 43 43 43 41 39 38 37 34 32 30 27 23 20 17 15 13 10 10
31 32 33 36 39 42 44 44 44 44 44 46 48 49 48 46 46 48 48 48 49 45 39 35 35 38 39 40 41 40 38 36 35 33 31 28 26 23 19 15 13 11 9 8
34 35 36 38 41 44 46 46 45 44 43 46 50 51 49 46 44 45 45 45 47 45 40 34 32 34 35 37 37 37 35 33 32 32 30 27 25 23 19 15 12 10 8 7
36 37 39 41 43 45 45 45 44 43 43 46 51 52 50 46 44 44 45 43 44 44 39 32 29 30 32 33 34 34 32 31 30 29 28 27 25 23 21 17 14 11 9 8
39 40 41 42 43 42 41 41 42 42 44 47 50 51 48 45 43 43 43 42 42 42 39 32 28 27 28 29 30 30 30 29 28 28 27 26 25 23 21 19 16 14 12 10
42 42 42 41 40 39 39 39 41 43 45 47 49 49 47 45 43 42 41 40 40 40 39 33 27 24 25 25 26 26 27 27 26 26 25 24 22 22 21 21 20 19 17 15
43 43 41 40 38 38 38 39 41 44 45 46 47 47 46 44 42 42 41 38 38 38 38 33 26 22 21 21 21 23 23 24 25 25 24 23 21 20 20 20 20 20 20 20
43 41 39 38 37 38 39 41 42 43 44 45 45 45 44 43 41 40 39 37 36 36 36 32 25 20 19 18 18 19 19 20 21 22 23 22 20 19 18 19 19 19 20 20
40 38 38 39 38 39 42 44 44 43 43 43 43 41 41 41 41 40 38 35 34 34 34 32 25 19 16 15 14 15 15 16 17 18 20 21 21 19 18 18 18 18 18 19
40 40 41 41 40 41 44 45 45 43 41 40 39 38 38 39 39 38 36 33 32 32 32 30 25 19 15 12 12 12 12 13 13 14 15 17 18 18 18 18 18 17 17 16
45 45 44 42 43 43 44 44 43 41 38 37 36 36 36 37 37 36 34 32 31 31 30 29 25 19 14 11 10 9 9 9 9 9 11 12 13 14 15 16 17 17 16 16
49 46 44 43 43 42 42 41 40 39 37 35 34 34 34 35 34 34 33 32 31 30 29 27 25 20 15 11 9 8 7 6 6 6 6 8 9 10 11 11 12 13 14 15
Wind_Direction
332 332 334 335 335 339 342 341 336 332 329 328 328 328 327 326 327 327 327 326 323 320 318 317 316 316 316 314 312 310 308 306 303 300 297 292 288 281 274 267 260 254 250 248
324 328 335 335 338 343 344 341 338 336 335 335 334 331 331 331 330 330 329 328 325 321 319 319 319 318 317 316 315 313 311 308 305 302 298 293 287 279 272 263 254 247 244 241
317 324 331 337 340 342 343 341 342 341 339 338 337 336 333 333 333 333 332 330 327 324 323 323 322 321 321 320 318 316 314 311 308 305 299 293 286 279 270 261 250 242 237 236
315 325 337 338 338 339 341 343 344 343 341 342 341 340 337 336 336 335 333 332 329 328 327 326 326 325 325 324 323 321 318 315 311 306 300 292 285 277 268 260 249 239 233 232
322 331 336 335 335 336 340 344 343 344 345 344 343 343 340 337 337 336 336 336 334 332 331 330 330 330 329 329 328 326 323 320 315 310 304 296 287 276 266 257 247 237 231 229
324 330 331 331 333 335 339 342 343 344 345 345 344 343 343 342 341 341 341 340 337 334 333 333 334 334 334 334 333 331 330 327 323 318 313 305 292 278 265 253 245 235 229 227
319 324 326 328 332 335 337 341 342 343 344 345 345 345 345 345 344 344 344 341 338 336 336 336 337 338 339 339 338 338 337 335 331 326 321 313 302 285 267 253 243 235 228 225
320 324 325 329 333 334 335 337 338 340 343 345 346 346 346 346 345 346 346 343 339 338 338 338 340 342 343 343 344 344 343 342 341 337 331 324 315 299 276 257 240 232 227 222
324 324 325 329 330 331 332 334 336 339 342 345 347 347 348 347 346 346 347 344 341 340 340 341 344 346 347 348 349 349 351 351 351 349 345 339 332 318 291 262 239 230 225 222
322 323 324 326 328 330 332 333 335 338 342 346 347 348 349 348 347 346 347 346 343 341 342 344 347 349 350 352 353 355 358 359 359 360 359 355 349 343 323 278 243 230 223 221
321 322 324 326 328 331 331 332 335 339 342 345 347 348 348 348 347 346 347 347 345 343 343 346 349 351 352 354 356 358 1 4 5 7 8 8 8 4 358 340 262 225 216 214
321 323 325 327 329 330 329 331 334 337 339 343 346 347 347 347 346 346 347 348 346 344 344 347 351 353 354 357 359 1 3 7 9 12 15 17 17 18 18 15 11 209 207 206
318 320 323 326 328 327 327 330 333 335 337 341 344 345 345 346 346 346 347 348 347 345 345 348 352 354 356 358 1 3 5 8 11 15 18 20 22 23 25 29 36 117 183 189
314 317 321 324 325 325 326 329 331 333 335 338 342 343 343 344 345 345 346 348 348 346 346 349 352 355 357 360 2 4 5 8 12 15 18 21 24 27 31 39 52 75 127 160
312 315 318 321 323 324 326 328 330 331 333 336 339 341 342 343 344 345 346 347 349 348 347 349 352 356 358 0 3 4 6 8 11 14 17 20 24 28 35 44 56 70 96 131
310 313 317 319 321 322 324 326 329 329 329 333 336 340 341 341 343 345 346 347 349 349 347 348 352 356 358 1 3 5 7 9 12 15 18 23 25 28 35 43 55 66 84 113
308 312 316 317 319 320 322 325 327 326 326 330 334 337 339 341 342 344 345 346 348 349 348 349 352 355 358 0 3 5 8 12 15 17 19 22 25 28 34 43 54 63 81 105
307 311 313 315 317 317 319 322 324 324 325 328 333 336 337 339 341 343 345 346 347 348 348 348 350 353 357 0 2 4 8 12 16 18 20 23 27 30 34 42 51 60 79 103
302 304 307 310 313 313 315 320 324 324 325 329 333 335 336 338 341 343 344 345 346 347 347 346 347 351 355 359 1 4 8 12 17 20 21 25 29 33 36 42 49 60 76 96
296 298 303 307 310 310 312 319 324 324 325 328 332 335 335 337 340 342 343 343 344 345 347 347 346 349 353 357 359 3 9 13 17 20 23 26 31 36 41 45 50 60 73 91
294 297 301 304 305 307 310 316 320 321 323 327 331 334 335 336 338 341 342 343 343 345 346 347 346 347 350 354 358 3 9 14 18 21 24 28 32 39 46 52 58 65 74 86
296 299 301 301 301 304 309 313 317 321 324 327 330 333 335 336 338 340 341 342 343 345 346 346 344 344 347 351 356 1 7 13 19 23 26 30 35 42 50 57 63 70 79 88
297 299 300 299 298 300 306 311 316 320 323 325 328 332 334 335 337 340 341 342 343 344 345 346 344 341 344 349 355 360 5 11 18 24 30 35 39 45 53 60 65 70 78 86
292 293 297 297 292 294 303 310 316 319 321 323 326 330 333 335 337 340 342 342 342 343 344 345 343 339 340 347 353 358 2 7 15 24 33 41 48 53 57 61 65 71 77 85
285 286 290 291 288 292 302 308 313 316 318 320 324 329 332 334 336 339 341 342 341 341 343 344 343 337 334 341 350 355 359 3 9 21 32 42 51 58 62 63 66 72 78 87
279 281 284 285 288 294 300 304 307 310 313 316 320 325 329 331 334 337 340 341 340 340 341 342 342 337 328 329 339 347 352 354 1 13 28 38 49 59 65 69 71 75 81 89
279 280 282 283 286 292 295 298 299 302 306 310 315 320 324 326 329 334 338 340 339 338 339 340 340 337 326 317 321 331 338 341 347 359 15 32 45 55 63 71 76 80 84 90
Height
5848 5845 5842 5839 5836 5832 5828 5823 5818 5813 5808 5803 5797 5790 5782 5774 5766 5757 5747 5737 5726 5715 5706 5699 5691 5683 5674 5665 5654 5643 5632 5621 5611 5602 5595 5590 5587 5585 5584 5585 5587 5590 5594 5597
5846 5843 5840 5836 5833 5828 5824 5819 5814 5808 5803 5797 5790 5781 5773 5764 5756 5747 5738 5727 5715 5706 5698 5690 5682 5673 5663 5651 5639 5627 5614 5602 5590 5580 5572 5566 5562 5560 5561 5562 5565 5569 5574 5579
5843 5840 5838 5833 5829 5825 5821 5816 5809 5803 5798 5791 5784 5774 5765 5757 5748 5737 5727 5715 5705 5696 5688 5680 5670 5660 5649 5636 5623 5610 5596 5583 5570 5559 5551 5544 5540 5538 5539 5541 5544 5550 5556 5562
5841 5838 5833 5832 5825 5822 5818 5812 5806 5799 5792 5784 5777 5769 5757 5748 5738 5728 5718 5707 5696 5687 5678 5669 5658 5647 5635 5621 5607 5593 5578 5564 5551 5540 5530 5523 5519 5517 5518 5520 5525 5532 5539 5546
5837 5833 5829 5826 5822 5817 5813 5808 5801 5794 5786 5778 5771 5764 5754 5743 5733 5722 5709 5697 5687 5677 5668 5658 5648 5635 5621 5607 5592 5576 5561 5546 5530 5518 5508 5502 5498 5496 5498 5501 5506 5513 5522 5530
5832 5829 5826 5824 5819 5813 5808 5803 5796 5788 5780 5772 5763 5755 5747 5736 5724 5712 5699 5688 5678 5669 5659 5649 5638 5625 5610 5594 5579 5563 5546 5528 5512 5499 5490 5483 5480 5479 5480 5484 5490 5497 5506 5515
5828 5826 5823 5820 5815 5810 5804 5799 5790 5782 5775 5766 5756 5746 5736 5726 5715 5704 5692 5681 5672 5662 5652 5642 5630 5616 5600 5585 5569 5552 5534 5516 5500 5487 5478 5471 5468 5467 5467 5471 5476 5483 5492 5501
5825 5822 5821 5815 5810 5806 5801 5793 5786 5778 5770 5761 5752 5741 5731 5721 5710 5698 5688 5677 5667 5657 5647 5635 5623 5609 5593 5577 5562 5544 5527 5509 5494 5481 5471 5465 5461 5459 5459 5460 5465 5472 5480 5489
5821 5820 5815 5810 5806 5801 5795 5788 5781 5773 5765 5756 5746 5736 5725 5715 5704 5694 5683 5672 5661 5651 5641 5629 5617 5602 5588 5572 5556 5540 5523 5507 5492 5479 5469 5462 5458 5455 5455 5456 5459 5464 5471 5479
5817 5814 5810 5806 5802 5796 5790 5783 5775 5767 5758 5749 5739 5729 5720 5710 5700 5690 5679 5667 5657 5647 5636 5625 5612 5598 5583 5568 5553 5538 5522 5507 5493 5481 5471 5463 5458 5455 5454 5454 5456 5460 5465 5472
5813 5810 5806 5802 5796 5791 5784 5777 5769 5761 5752 5743 5734 5725 5715 5706 5696 5686 5675 5663 5652 5642 5632 5621 5609 5595 5581 5567 5553 5538 5524 5509 5496 5485 5475 5467 5461 5458 5456 5455 5456 5458 5462 5467
5808 5805 5801 5796 5791 5785 5779 5772 5764 5756 5748 5739 5730 5720 5711 5701 5691 5681 5671 5660 5648 5638 5628 5618 5606 5594 5580 5566 5553 5540 5527 5514 5501 5490 5481 5473 5467 5463 5460 5458 5458 5459 5462 5466
5803 5799 5795 5790 5786 5781 5775 5767 5760 5752 5744 5735 5726 5716 5706 5696 5687 5677 5667 5656 5645 5635 5625 5615 5604 5592 5580 5567 5554 5542 5531 5519 5507 5497 5487 5480 5474 5469 5465 5463 5461 5462 5464 5467
5797 5793 5789 5785 5781 5775 5769 5762 5754 5747 5739 5730 5721 5712 5702 5693 5683 5673 5664 5653 5643 5632 5622 5613 5603 5592 5580 5568 5557 5545 5534 5524 5513 5504 5495 5487 5481 5475 5471 5468 5466 5466 5467 5470
5792 5788 5785 5780 5775 5770 5763 5756 5749 5741 5733 5725 5717 5707 5698 5689 5679 5670 5660 5650 5640 5629 5620 5611 5602 5592 5581 5570 5560 5549 5538 5528 5519 5510 5502 5494 5488 5483 5478 5475 5473 5472 5473 5474
5786 5783 5779 5774 5769 5763 5757 5750 5743 5736 5728 5721 5712 5703 5694 5684 5675 5665 5656 5646 5637 5627 5618 5610 5601 5592 5583 5573 5563 5553 5543 5533 5524 5516 5508 5501 5495 5490 5486 5483 5480 5479 5479 5481
5780 5776 5772 5768 5762 5756 5749 5743 5737 5730 5722 5715 5707 5698 5689 5680 5671 5662 5653 5643 5634 5625 5616 5608 5600 5592 5584 5575 5566 5557 5548 5539 5530 5521 5514 5507 5502 5497 5492 5489 5487 5486 5486 5486
5772 5769 5765 5760 5754 5748 5742 5736 5730 5723 5716 5709 5701 5692 5684 5675 5667 5659 5650 5641 5632 5622 5614 5606 5600 5592 5585 5577 5569 5561 5552 5544 5536 5528 5520 5514 5508 5503 5498 5495 5493 5491 5491 5491
5765 5761 5756 5751 5746 5740 5734 5730 5724 5717 5710 5703 5695 5687 5678 5670 5662 5654 5646 5638 5630 5622 5613 5605 5599 5593 5586 5578 5571 5564 5557 5549 5542 5534 5527 5520 5514 5509 5504 5501 5498 5496 5495 5495
5756 5752 5747 5743 5738 5732 5727 5723 5717 5710 5703 5697 5689 5681 5673 5665 5658 5650 5642 5634 5627 5619 5612 5604 5598 5592 5586 5580 5574 5568 5561 5554 5547 5540 5534 5527 5522 5516 5511 5507 5504 5501 5500 5499
5745 5741 5737 5733 5729 5723 5719 5715 5709 5703 5697 5691 5684 5676 5668 5661 5653 5646 5639 5631 5624 5616 5609 5602 5597 5592 5587 5581 5576 5570 5564 5558 5552 5546 5540 5534 5529 5524 5519 5515 5511 5508 5506 5505
5734 5730 5727 5723 5719 5715 5710 5706 5701 5696 5690 5684 5678 5671 5664 5657 5650 5642 5635 5628 5621 5614 5607 5601 5595 5591 5586 5581 5577 5572 5567 5562 5557 5551 5546 5541 5536 5532 5528 5524 5520 5517 5515 5514
5722 5719 5716 5714 5711 5706 5701 5696 5692 5688 5683 5678 5672 5666 5659 5653 5646 5640 5632 5625 5618 5612 5605 5599 5594 5590 5586 5581 5577 5573 5569 5565 5561 5557 5552 5547 5543 5539 5536 5533 5530 5527 5525 5523
5711 5709 5706 5704 5701 5697 5692 5687 5683 5680 5676 5672 5666 5661 5654 5648 5642 5634 5628 5621 5615 5609 5603 5598 5592 5589 5585 5581 5578 5574 5571 5568 5565 5561 5558 5554 5550 5546 5543 5541 5538 5536 5535 5533
5699 5697 5695 5693 5690 5686 5682 5678 5674 5672 5669 5665 5660 5655 5650 5644 5638 5631 5624 5618 5612 5607 5601 5596 5591 5587 5584 5581 5578 5575 5573 5570 5568 5565 5562 5559 5556 5553 5551 5548 5546 5545 5543 5543
5686 5685 5684 5681 5679 5675 5672 5669 5666 5664 5661 5658 5654 5649 5644 5639 5633 5627 5620 5614 5609 5604 5599 5594 5589 5585 5582 5580 5578 5575 5573 5572 5570 5568 5566 5564 5562 5560 5558 5556 5554 5553 5552 5551
5671 5671 5671 5669 5667 5665 5663 5660 5658 5656 5654 5651 5648 5644 5639 5634 5629 5623 5617 5611 5606 5602 5597 5592 5588 5583 5581 5578 5577 5575 5573 5572 5571 5570 5568 5567 5566 5564 5563 5562 5561 5560 5559 5559